Flag for Germany Weather past 2 weeks in Bergisch Gladbach, North Rhine-Westphalia, Germany

Now
50 °F

Scattered showers. Scattered clouds.


Feels Like: 43 °F
Forecast: 38 / 44 °F
Wind: 26 mph from Northwest

Location: Koeln / Bonn

Current Time: Mar 31, 2015 at 5:59:10 PM

Latest Report: Mar 31, 2015 at 5:20 PM


Visibility: N/A

Pressure: 29.71 "Hg

Humidity: 43%

Dew point: 28 °F

Location of Bergisch GladbachLocation

Historic Weather in Bergisch Gladbach — Graph

°F

Bergisch Gladbach temperature yesterday

Maximum temperature yesterday: 48 °F (at 12:20 AM)
Minimum temperature yesterday: 41 °F (at 1:20 PM)
Average temperature yesterday: 46 °F

Past Weeks' High & Low Weather Summary

 TemperatureHumidityPressure
High66 °F (Mar 17, 3:50 PM)100% (Mar 17, 5:50 AM)30.36 "Hg (Mar 17, 5:50 AM)
Low28 °F (Mar 23, 5:20 AM)28% (Mar 17, 3:50 PM)29.33 "Hg (Mar 31, 5:20 AM)
Average45 °F75%29.98 "Hg
* Reported Mar 16 3:20 PM — Mar 31 4:20 PM, Bergisch Gladbach, Weather by CustomWeather, © 2015

Note: Actual official high and low records may vary slightly from our data, if they occured in-between our weather recording intervals... More about our weather records

Advertising

Bergisch Gladbach weather history for previous 24 hours

 ConditionsComfort  
Time TempWeatherWind HumidityBarometerVisibility
4:20 PM
Tue, Mar 31
52 °FScattered showers. Partly sunny.36 mph44%29.65 "HgN/A
3:50 PM52 °FScattered showers. Scattered clouds.32 mph47%29.62 "HgN/A
3:20 PM50 °FSprinkles. Scattered clouds.22 mph58%29.62 "HgN/A
2:50 PM50 °FScattered showers. Scattered clouds.31 mph62%29.62 "HgN/A
2:20 PM46 °FRain showers. Partly sunny.36 mph71%29.59 "HgN/A
1:50 PM52 °FSprinkles. Scattered clouds.31 mph58%29.56 "HgN/A
1:20 PM52 °FSprinkles. Scattered clouds.30 mph58%29.53 "HgN/A
12:50 PM50 °FRain showers. Partly sunny.40 mph62%29.53 "HgN/A
12:20 PM52 °FSprinkles. Partly sunny.28 mph58%29.50 "HgN/A
11:50 AM52 °FScattered clouds.30 mph58%29.47 "HgN/A
11:20 AM52 °FSprinkles. Broken clouds.32 mph67%29.47 "HgN/A
10:50 AM50 °FSprinkles. Scattered clouds.29 mph82%29.45 "HgN/A
10:20 AM50 °FSprinkles. Partly sunny.24 mph82%29.42 "HgN/A
9:50 AM50 °FRain showers. Broken clouds.30 mph76%29.42 "HgN/A
9:20 AM52 °FSprinkles. Scattered clouds.37 mph72%29.39 "HgN/A
8:50 AM52 °FPartly sunny.21 mph77%29.36 "HgN/A
8:20 AM52 °FLight rain. Partly sunny.35 mph77%29.36 "HgN/A
7:50 AM52 °FLight rain. Passing clouds.32 mph82%29.33 "HgN/A
7:20 AM52 °FLight rain. Partly cloudy.37 mph82%29.33 "HgN/A
6:50 AM52 °FLight rain. Passing clouds.32 mph88%29.36 "HgN/A
6:20 AM54 °FLight rain. Passing clouds.32 mph82%29.36 "HgN/A
5:50 AM54 °FLight rain. Overcast.30 mph77%29.33 "HgN/A
5:20 AM54 °FOvercast.26 mph77%29.33 "HgN/A
4:50 AM54 °FLight rain. Overcast.28 mph77%29.36 "HgN/A
4:20 AM54 °FLight rain. Overcast.25 mph77%29.39 "HgN/A
3:50 AM50 °FLight rain. Overcast.18 mph82%29.42 "HgN/A
3:20 AM46 °FLight rain. Overcast.13 mph87%29.45 "HgN/A
2:50 AM43 °FLight rain. Overcast.10 mph87%29.50 "HgN/A
2:20 AM41 °FLight rain. Overcast.12 mph93%29.53 "HgN/A
1:20 AM41 °FLight rain. Overcast.10 mph87%29.65 "HgN/A
12:50 AM41 °FLight rain. Mostly cloudy.6 mph87%29.71 "HgN/A
12:20 AM43 °FLight rain. Mostly cloudy.12 mph76%29.74 "HgN/A
11:50 PM
Mon, Mar 30
45 °FLight rain. Clear.10 mph61%29.74 "HgN/A
11:20 PM43 °FClear.8 mph61%29.77 "Hg10 mi
10:50 PM43 °FClear.9 mph61%29.77 "Hg10 mi
10:20 PM43 °FPartly cloudy.8 mph61%29.83 "HgN/A
9:50 PM41 °FClear.7 mph61%29.83 "Hg10 mi
9:20 PM41 °FClear.5 mph61%29.86 "Hg10 mi
8:50 PM43 °FSunny.6 mph57%29.86 "Hg10 mi
8:20 PM45 °FSunny.12 mph53%29.86 "Hg10 mi
7:50 PM45 °FSunny.13 mph49%29.86 "Hg10 mi
7:20 PM46 °FSunny.20 mph43%29.86 "Hg10 mi
6:50 PM48 °FScattered clouds.17 mph40%29.86 "HgN/A
6:20 PM48 °FScattered clouds.17 mph40%29.83 "HgN/A
5:50 PM48 °FScattered clouds.18 mph46%29.83 "HgN/A
5:20 PM48 °FScattered clouds.23 mph43%29.80 "HgN/A
Weather by CustomWeather, © 2015

See weather overviewHow to use our weather pages